Tracking 32936 objects as of 17-Jan-2026
HD Live streaming from Space Station
objects crossing your sky now

STARLINK-33789

Track STARLINK-33789 now!
10-day predictions
STARLINK-33789 is classified as:


NORAD ID: 63657
Int'l Code: 2025-083Z
Perigee: 489.5 km
Apogee: 490.8 km
Inclination: 43.0 °
Period: 94.3 minutes
Semi major axis: 6861 km
RCS: Unknown
Launch date: April 25, 2025
Source: United States (US)
Launch site: AIR FORCE EASTERN TEST RANGE (AFETR)
Your satellite tracking list
Your tracking list is empty




NASA's NSSDC Master Catalog

Two Line Element Set (TLE):
1 63657U 25083Z   26016.48052430  .00009610  00000-0  35805-3 0  9996
2 63657  42.9958 299.9286 0000929  23.0096 337.0797 15.27601805 42110
Source of the keplerian elements: AFSPC